Fort Madison, IA

4:46 PM CST on February 22, 2018 (GMT -0600)
Fort Madison Municipal

Weather History for KFSW - October, 2012

Change the Weather History Date:

Tuesday, October 9, 2012

  Actual Average Record
Temperature  
Mean Temperature 58 °F -  
Max Temperature 69 °F 67 °F 140 °F (1997)
Min Temperature 46 °F 45 °F 29 °F (1964)
Degree Days  
Heating Degree Days 8    
Growing Degree Days 8 (Base 50)    
Moisture  
Dew Point 45 °F    
Average Humidity 69    
Maximum Humidity 100    
Minimum Humidity 40    
Precipitation  
Precipitation 0.18 in - - ()
Sea Level Pressure  
Sea Level Pressure 29.94 in    
Wind  
Wind Speed 12 mph (SW)    
Max Wind Speed 20 mph    
Max Gust Speed 29 mph    
Visibility 10 miles    
Events Rain    
Averages and records for this station are not official NWS values.
T = Trace of Precipitation, MM = Missing Value Source: NWS Daily Summary

Daily Weather History Graph

Daily Weather History Graph

Search for Another Location

Airport or City:

Trip Planner

Search our weather history database for the weather conditions in past years. The results will help you decide how hot, cold, wet, or windy it might be!

Date:

Astronomy

Oct. 09, 2012 Rise Set
Actual Time 7:10 AM CDT 6:33 PM CDT
Civil Twilight 6:43 AM CDT 7:00 PM CDT
Nautical Twilight 6:11 AM CDT 7:32 PM CDT
Astronomical Twilight 5:39 AM CDT 8:04 PM CDT
Moon 12:45 AM CDT (10/9) 3:02 PM CDT (10/9)
Length of Visible Light 12h 17m
Length of Day
11h 23m
Last Quarter, 36% of the Moon is Illuminated
Oct 9
Last Quarter
Oct 15
New
Oct 21
First Quarter
Oct 29
Full
Nov 6
Last Quarter

Hourly Weather History & Observations

Time (CDT) Temp. Windchill Dew Point Humidity Pressure Visibility Wind Dir Wind Speed Gust Speed Precip Events Conditions
12:15 AM 53.6 °F - 39.2 °F 58% 29.97 in 10.0 mi SSW 10.4 mph 17.3 mph N/A   Clear
12:35 AM 53.6 °F - 39.2 °F 58% 29.96 in 10.0 mi SSW 10.4 mph 17.3 mph N/A   Clear
12:55 AM 53.6 °F - 39.2 °F 58% 29.96 in 10.0 mi SSW 10.4 mph 18.4 mph N/A   Clear
1:15 AM 53.6 °F - 39.2 °F 58% 29.96 in 10.0 mi SSW 11.5 mph - N/A   Clear
1:35 AM 53.6 °F - 39.2 °F 58% 29.96 in 10.0 mi SSW 12.7 mph - N/A   Clear
1:55 AM 53.6 °F - 39.2 °F 58% 29.96 in 10.0 mi SSW 13.8 mph 18.4 mph N/A   Clear
2:15 AM 53.6 °F - 41.0 °F 62% 29.96 in 10.0 mi South 12.7 mph - N/A   Clear
3:15 AM 51.8 °F - 41.0 °F 67% 29.94 in 10.0 mi SSW 15.0 mph 19.6 mph N/A   Clear
3:35 AM 51.8 °F - 41.0 °F 67% 29.94 in 10.0 mi SSW 12.7 mph - N/A   Clear
3:55 AM 51.8 °F - 41.0 °F 67% 29.93 in 10.0 mi South 13.8 mph - N/A   Clear
4:15 AM 51.8 °F - 42.8 °F 71% 29.93 in 10.0 mi South 12.7 mph 18.4 mph N/A   Clear
4:35 AM 51.8 °F - 42.8 °F 71% 29.94 in 10.0 mi SSW 10.4 mph - N/A   Clear
4:55 AM 51.8 °F - 42.8 °F 71% 29.94 in 10.0 mi SSW 10.4 mph 18.4 mph N/A   Clear
5:15 AM 51.8 °F - 42.8 °F 71% 29.94 in 10.0 mi SSW 10.4 mph 16.1 mph N/A   Clear
5:35 AM 51.8 °F - 42.8 °F 71% 29.94 in 10.0 mi SSW 15.0 mph - N/A   Clear
5:55 AM 50.0 °F - 42.8 °F 76% 29.93 in 10.0 mi SSW 12.7 mph 18.4 mph N/A   Clear
6:15 AM 50.0 °F - 42.8 °F 76% 29.93 in 10.0 mi SSW 11.5 mph 17.3 mph N/A   Clear
6:35 AM 50.0 °F - 42.8 °F 76% 29.93 in 10.0 mi South 13.8 mph - N/A   Clear
6:55 AM 50.0 °F - 42.8 °F 76% 29.93 in 10.0 mi SSW 16.1 mph 19.6 mph N/A   Clear
7:15 AM 50.0 °F - 42.8 °F 76% 29.93 in 10.0 mi South 16.1 mph 19.6 mph N/A   Clear
7:35 AM 50.0 °F - 42.8 °F 76% 29.92 in 10.0 mi SSW 13.8 mph 19.6 mph N/A   Clear
7:55 AM 51.8 °F - 44.6 °F 76% 29.93 in 10.0 mi SSW 15.0 mph - N/A   Clear
8:15 AM 51.8 °F - 44.6 °F 76% 29.93 in 10.0 mi SSW 15.0 mph 21.9 mph N/A   Clear
8:35 AM 53.6 °F - 44.6 °F 72% 29.93 in 10.0 mi South 15.0 mph 21.9 mph N/A   Clear
8:55 AM 53.6 °F - 44.6 °F 72% 29.92 in 10.0 mi SSW 17.3 mph 23.0 mph N/A   Clear
9:15 AM 53.6 °F - 44.6 °F 72% 29.92 in 10.0 mi SSW 10.4 mph 24.2 mph N/A   Clear
9:35 AM 53.6 °F - 44.6 °F 72% 29.93 in 10.0 mi SSW 13.8 mph - N/A   Clear
9:55 AM 55.4 °F - 44.6 °F 67% 29.93 in 10.0 mi SSW 13.8 mph 19.6 mph N/A   Clear
10:15 AM 57.2 °F - 44.6 °F 63% 29.93 in 10.0 mi SSW 13.8 mph 19.6 mph N/A   Clear
10:35 AM 60.8 °F - 44.6 °F 55% 29.93 in 10.0 mi SSW 15.0 mph 20.7 mph N/A   Clear
10:55 AM 62.6 °F - 44.6 °F 52% 29.93 in 10.0 mi SSW 13.8 mph 19.6 mph N/A   Clear
11:15 AM 62.6 °F - 44.6 °F 52% 29.92 in 10.0 mi SSW 12.7 mph 18.4 mph N/A   Clear
11:35 AM 64.4 °F - 44.6 °F 49% 29.91 in 10.0 mi SSW 16.1 mph 20.7 mph N/A   Clear
11:55 AM 66.2 °F - 44.6 °F 46% 29.91 in 10.0 mi SW 17.3 mph 24.2 mph N/A   Clear
12:15 PM 66.2 °F - 44.6 °F 46% 29.90 in 10.0 mi SW 13.8 mph 23.0 mph N/A   Clear
12:35 PM 66.2 °F - 44.6 °F 46% 29.89 in 10.0 mi WSW 13.8 mph 21.9 mph N/A   Clear
12:55 PM 69.8 °F - 46.4 °F 43% 29.88 in 10.0 mi SSW 10.4 mph 19.6 mph N/A   Clear
1:15 PM 68.0 °F - 46.4 °F 46% 29.88 in 10.0 mi SSW 13.8 mph 23.0 mph N/A   Clear
1:35 PM 69.8 °F - 46.4 °F 43% 29.87 in 10.0 mi SSW 13.8 mph 21.9 mph N/A   Clear
1:55 PM 69.8 °F - 44.6 °F 40% 29.86 in 10.0 mi SW 12.7 mph 23.0 mph N/A   Clear
2:15 PM 69.8 °F - 46.4 °F 43% 29.86 in 10.0 mi SW 13.8 mph 24.2 mph N/A   Clear
2:35 PM 69.8 °F - 46.4 °F 43% 29.85 in 10.0 mi SSW 12.7 mph 23.0 mph N/A   Clear
2:55 PM 69.8 °F - 48.2 °F 46% 29.85 in 10.0 mi SSW 15.0 mph 18.4 mph N/A   Clear
3:15 PM 69.8 °F - 48.2 °F 46% 29.86 in 7.0 mi WSW 11.5 mph 24.2 mph N/A   Scattered Clouds
3:35 PM 69.8 °F - 48.2 °F 46% 29.86 in 7.0 mi WSW 15.0 mph 21.9 mph N/A   Mostly Cloudy
3:55 PM 66.2 °F - 48.2 °F 52% 29.87 in 10.0 mi West 12.7 mph 19.6 mph N/A   Overcast
4:15 PM 64.4 °F - 46.4 °F 52% 29.88 in 10.0 mi NW 17.3 mph 23.0 mph N/A   Overcast
4:35 PM 64.4 °F - 44.6 °F 49% 29.88 in 10.0 mi WNW 10.4 mph 18.4 mph N/A   Overcast
4:55 PM 62.6 °F - 44.6 °F 52% 29.88 in 10.0 mi WNW 12.7 mph - N/A   Overcast
5:15 PM 62.6 °F - 44.6 °F 52% 29.87 in 10.0 mi WNW 8.1 mph - N/A   Overcast
5:35 PM 59.0 °F - 46.4 °F 63% 29.91 in 10.0 mi NNW 19.6 mph 28.8 mph N/A   Overcast
5:55 PM 57.2 °F - 46.4 °F 67% 29.92 in 10.0 mi NNW 16.1 mph 25.3 mph N/A   Overcast
6:15 PM 53.6 °F - 48.2 °F 82% 29.93 in 10.0 mi NNW 18.4 mph 25.3 mph N/A Rain Light Rain
6:35 PM 51.8 °F - 48.2 °F 88% 29.95 in 10.0 mi NNW 19.6 mph 24.2 mph 0.04 in Rain Rain
6:55 PM 50.0 °F - 48.2 °F 94% 29.96 in 10.0 mi NNW 16.1 mph - 0.09 in Rain Light Rain
7:15 PM 48.2 °F - 48.2 °F 100% 29.97 in 10.0 mi NNW 13.8 mph 23.0 mph 0.06 in Rain Rain
7:35 PM 48.2 °F - 48.2 °F 100% 29.97 in 10.0 mi NW 8.1 mph - 0.09 in Rain Light Rain
7:55 PM 48.2 °F - 48.2 °F 100% 29.98 in 10.0 mi NW 4.6 mph - 0.09 in   Overcast
8:15 PM 48.2 °F - 48.2 °F 100% 29.97 in 10.0 mi NNW 5.8 mph - N/A   Overcast
8:35 PM 48.2 °F - 48.2 °F 100% 29.99 in 10.0 mi NW 6.9 mph - N/A   Overcast
8:55 PM 48.2 °F - 46.4 °F 93% 29.99 in 10.0 mi West 3.5 mph - N/A   Overcast
9:15 PM 48.2 °F - 46.4 °F 93% 30.00 in 10.0 mi West 3.5 mph - N/A   Overcast
9:35 PM 48.2 °F - 48.2 °F 100% 30.00 in 10.0 mi West 5.8 mph - N/A   Overcast
9:55 PM 48.2 °F - 48.2 °F 100% 30.01 in 10.0 mi West 6.9 mph - N/A   Overcast
10:15 PM 48.2 °F - 46.4 °F 93% 30.01 in 10.0 mi West 5.8 mph - N/A   Mostly Cloudy
10:35 PM 46.4 °F 42.9 °F 46.4 °F 100% 30.02 in 10.0 mi WNW 6.9 mph - N/A   Scattered Clouds
10:55 PM 46.4 °F 41.9 °F 44.6 °F 93% 30.02 in 10.0 mi WNW 9.2 mph - N/A   Clear
11:15 PM 46.4 °F 41.5 °F 44.6 °F 93% 30.03 in 10.0 mi NW 10.4 mph - N/A   Clear
11:35 PM 46.4 °F 41.5 °F 42.8 °F 87% 30.03 in 10.0 mi WNW 10.4 mph - N/A   Clear
11:55 PM 46.4 °F 41.5 °F 42.8 °F 87% 30.04 in 10.0 mi WNW 10.4 mph - N/A   Clear